Regional Weather Roundup
Issued by NWS

Home | Current Version | Previous Version | Text Only | Print | Product List | Glossary Off
Versions: 1 2 3 4 5 6 7 8 9 10 11 12 13 14 15 16 17 18 19 20 21 22 23 24 25 26 27 28 29 30 31 32 33 34 35 36 37 38 39 40 41 42 43 44 45 46 47 48 49 50

000
ASUS43 KMPX 201001
RWRMN
WEATHER ROUNDUP FOR MINNESOTA
NATIONAL WEATHER SERVICE TWIN CITIES/CHANHASSEN MN
500 AM CDT MON OCT 20 2014


NOTE: "FAIR" INDICATES FEW OR NO CLOUDS BELOW 12,000 FEET WITH NO
SIGNIFICANT WEATHER AND/OR OBSTRUCTIONS TO VISIBILITY. N/A MEANS
CURRENT SKY AND/OR WEATHER CONDITIONS ARE NOT AVAILABLE.

MNZ060>063-068>070-201100-
   Twin Cities Metro

CITY           SKY/WX    TMP DP  RH WIND       PRES   REMARKS
TWIN CITIES    CLEAR     49  41  74 CALM      29.92R
ST PAUL        CLEAR     46  43  89 CALM      29.93R
CRYSTAL        CLEAR     48  41  76 NW6       29.91R
BLAINE         CLEAR     46  43  87 W5        29.92R
LAKEVILLE      CLEAR     46  41  81 W3        29.93R
EDEN PRAIRIE   CLEAR     48  42  80 W3        29.92R
SOUTH ST PAUL  CLEAR     46  41  83 CALM      29.92R
LAKE ELMO      FAIR      43  41  93 CALM      29.92S
$$
MNZ001>005-007-008-013>017-022>024-027-028-201100-
   Northwest Minnesota

CITY           SKY/WX    TMP DP  RH WIND       PRES   REMARKS
BEMIDJI        CLEAR     35  33  94 W6        29.96R WCI  30
HALLOCK        CLEAR     37  36  93 N8        30.01R
ROSEAU         PTCLDY    37  34  87 NW6       29.99R
WARROAD        MOCLDY    39  36  87 NW7       29.98R
THIEF RVR FALL CLEAR     41  37  87 NW6       29.99R
CROOKSTON      CLEAR     37  36  93 N5        30.01R
FOSSTON        CLEAR     36  34  93 CALM      29.99R
DETROIT LAKES  CLEAR     43  37  81 NW8       29.99R
MOORHEAD       CLEAR     39  39 100 CALM      30.00R
PARK RAPIDS    CLEAR     35  33  92 NW7       29.95R WCI  29
MAHNOMEN       FAIR      37  35  90 N6        29.97R
$$
MNZ006-009>011-018-025>026-201100-
   North Central Minnesota

CITY           SKY/WX    TMP DP  RH WIND       PRES   REMARKS
BAUDETTE       PTCLDY    40  38  93 W6        29.95R
FLAG ISLAND    MOCLDY    43  39  87 NW15      29.95R
INTL FALLS     MOCLDY    33  33 100 W3        29.91R
WASKISH        CLEAR     43  39  87 CALM      29.95R
BIG FORK       CLEAR     43  39  87 CALM      29.92R
LONGVILLE      FOG       37  37 100 CALM      29.94R VSB 1
GRAND RAPIDS   CLEAR     43  37  81 NW6       29.91R
CRANE LAKE     CLOUDY    46  43  87 N3        29.90R
ORR            PTCLDY    41  37  87 CALM      29.87R
COOK           PTCLDY    39  37  93 W3        29.89R
WALKER         FAIR      39  37  94 CALM      29.95R
$$
MNZ012-019>021-037-201100-
   Northeast Minnesota

CITY           SKY/WX    TMP DP  RH WIND       PRES   REMARKS
DULUTH         CLEAR     45  40  82 NW8       29.87R
ELY            CLOUDY    45  39  81 NW6       29.86S
HIBBING        CLOUDY    38  34  85 CALM      29.90R
EVELETH        CLEAR     39  37  93 W6        29.90R
DULUTH HARBOR  CLEAR     50  43  76 CALM      29.89R
TWO HARBORS    CLEAR     39  27  60 CALM      29.84S
SILVER BAY     CLEAR     45  39  81 CALM      29.84R
GRAND MARAIS     N/A     49  42  77 NW6       29.83R
G MARAIS ARPRT CLOUDY    43  37  81 NW9       29.83R
$$
MNZ029>031-032-039>041-046>048-054>057-064-201100-
   West Central Minnesota

CITY           SKY/WX    TMP DP  RH WIND       PRES   REMARKS
FERGUS FALLS   CLEAR     37  34  87 CALM      30.00R
WHEATON        CLEAR     39  36  87 W5        30.02R
MORRIS         CLEAR     37  34  87 NW7       29.98R
ALEXANDRIA     CLEAR     43  38  82 NW7       29.98R
ELBOW LAKE     FAIR      40  36  86 NW6       29.98R
WADENA         CLEAR     41  37  87 W5        29.96R
GLENWOOD       CLEAR     43  39  87 W8        29.97R
APPLETON       CLEAR     43  37  81 N3        29.98S
BENSON         CLEAR     37  36  93 N7        29.98R
ORTONVILLE     CLEAR     46  37  71 NW7       29.99R
MADISON        CLEAR     43  37  81 NW6       29.99R
WILLMAR        FAIR      39  36  87 W8        29.98R
$$
MNZ033>034-036-042>043-049>051-058-059-201100-
   Central Minnesota

CITY           SKY/WX    TMP DP  RH WIND       PRES   REMARKS
ST CLOUD       CLEAR     48  40  73 VRB7      29.94R
SAUK CENTRE    FAIR      42  38  86 NW6       29.96R
PAYNESVILLE    CLEAR     36  35  98 SW7       29.96R
AITKIN         CLEAR     41  36  81 CALM      29.91R
PINE RIVER     CLEAR     36  34  93 CALM      29.98R
BRAINERD       CLEAR     42  40  92 NW5       29.94R
STAPLES        CLEAR     39  37  93 NW3       29.95R
LONG PRAIRIE   FAIR      46  39  76 W10       29.95S
LITTLE FALLS   CLEAR     43  39  87 N3        29.94R
LITCHFIELD     CLEAR     48  45  87 W6        29.95S
BUFFALO        CLEAR     44  40  86 CALM      29.94R
MAPLE LAKE     CLEAR     46  42  86 W5        29.94R
$$
MNZ037-044-045-052-053-201100-
   East Central Minnesota

CITY           SKY/WX    TMP DP  RH WIND       PRES   REMARKS
PRINCETON      CLEAR     41  37  87 W3        29.93R
MORA           CLEAR     41  36  81 NW3       29.93R
CAMBRIDGE      CLEAR     46  37  71 W5        29.91R
RUSH CITY      PTCLDY    45  41  85 NW6       29.91R
MOOSE LAKE     CLEAR     45  39  81 NW7       29.88R
HINCKLEY       FAIR      45  41  87 CALM      29.91R
CLOQUET        CLEAR     45  39  81 W5        29.89R
MCGREGOR       CLEAR     43  41  93 NW5       29.92R
$$
MNZ071>073-080-081-089-090-097-098-201100-
   Southwest Minnesota

CITY           SKY/WX    TMP DP  RH WIND       PRES   REMARKS
MONTEVIDEO     CLEAR     43  37  81 N7        29.99R
GRANITE FALLS  CLEAR     37  34  90 W6        30.00R
CANBY          CLEAR     46  38  76 W6        30.01R
MARSHALL       CLEAR     45  36  70 W12       29.98R
REDWOOD FALLS  CLEAR     44  37  76 W9        29.98R
OLIVIA         CLEAR     39  36  87 W5        29.96S
PIPESTONE      CLEAR     39  36  87 CALM      30.02R
WINDOM         CLEAR     39  36  87 W3        29.99R
WORTHINGTON    CLEAR     39  34  81 W5        30.01S
JACKSON        CLEAR     41  36  81 W6        29.99S
TRACY          CLEAR     48  39  71 W7        29.99S
SLAYTON        CLEAR     44  38  79 W8        30.01S
$$
MNZ065>067-074>077-082>085-091>093-201100-
   South Central Minnesota

CITY           SKY/WX    TMP DP  RH WIND       PRES   REMARKS
MANKATO        CLEAR     45  36  70 W8        29.96R
NEW ULM        CLEAR     43  39  87 W8        29.97R
ST JAMES       CLEAR     45  37  76 W6        29.98S
FAIRMONT       CLEAR     46  36  66 NW8       29.97R
GLENCOE        CLEAR     46  41  84 W7        29.94R
FARIBAULT      CLEAR     45  41  87 W3        29.94R
OWATONNA       CLEAR     41  37  87 W3        29.94R
WASECA         CLEAR     37  34  87 W5        29.96R
ALBERT LEA     CLEAR     46  41  81 CALM      29.94S
$$
MNZ078>079-086>088-094>096-201100-
   Southeast Minnesota

CITY           SKY/WX    TMP DP  RH WIND       PRES   REMARKS
ROCHESTER      CLEAR     43  40  89 NW7       29.93R
RED WING       CLEAR     43  39  87 CALM      29.91R
STANTON        CLEAR     44  39  84 CALM      29.92R
DODGE CENTER   CLEAR     46  43  87 NW9       29.93R
WINONA         CLEAR     48  43  81 NW5       29.90R
AUSTIN         CLEAR     46  41  81 NW6       29.93R
PRESTON        CLEAR     45  40  83 NW6       29.92R
$$
ABBREVIATIONS USED IN REMARKS
   TC - TEMPERATURES IN CELSIUS
  WCI - WIND CHILL INDEX
   HX - HEAT INDEX
  VSB - VISIBILITY
$$


USA.gov is the U.S. government's official web portal to all federal, state and local government web resources and services.